�N����,����,�~����,�C��,���x,�C��,����,���ϕ���,�ő�u�ԕ���,�ő厞����,���˗�,�I�_���x,�n�����x,�ő啗���N��,DTYPE
"17/07/24","00:10",0.0,25.2,86.8,1000.0,329.3,1.1,1.9,345.6,0.00,22.9,26.3,"00:06:32",1
"17/07/24","00:20",0.0,25.1,86.7,1000.0,335.0,0.8,1.4,345.8,0.00,22.8,25.9,"00:13:44",1
"17/07/24","00:30",0.0,25.0,86.6,999.8,276.7,0.3,0.9,314.8,0.00,22.6,26.0,"00:20:56",1
"17/07/24","00:40",0.0,24.8,87.1,999.6,256.8,0.5,1.3,236.8,0.00,22.5,25.9,"00:39:28",1
"17/07/24","00:50",0.0,24.7,87.4,999.8,251.6,1.0,1.4,241.6,0.00,22.5,25.9,"00:41:36",1
"17/07/24","01:00",0.0,24.7,87.4,999.8,283.1,1.0,1.2,292.5,0.00,22.5,25.9,"00:54:32",1
"17/07/24","01:10",0.0,24.7,87.4,999.3,311.9,1.1,1.9,318.2,0.00,22.5,25.8,"01:01:36",1
"17/07/24","01:20",0.0,24.6,87.6,999.6,241.5,0.1,1.1,338.3,0.00,22.4,25.9,"01:10:24",1
"17/07/24","01:30",0.0,24.5,88.2,999.3,241.2,0.2,0.8,290.8,0.00,22.5,25.7,"01:29:20",1
"17/07/24","01:40",0.0,24.4,88.7,999.6,294.6,0.8,1.3,302.2,0.00,22.5,25.7,"01:35:36",1
"17/07/24","01:50",0.0,24.3,89.1,999.3,320.7,0.8,1.2,304.4,0.00,22.4,25.8,"01:44:56",1
"17/07/24","02:00",0.0,24.3,89.3,999.3,320.7,0.6,1.4,345.3,0.00,22.5,25.8,"01:54:08",1
"17/07/24","02:10",0.0,24.4,89.4,999.1,281.5,0.7,1.1,272.9,0.00,22.6,25.7,"02:05:52",1
"17/07/24","02:20",0.0,24.5,89.1,999.1,292.6,0.8,1.2,243.2,0.00,22.6,25.7,"02:15:36",1
"17/07/24","02:30",0.0,24.6,88.9,998.9,302.8,1.0,1.7,317.1,0.00,22.7,25.7,"02:28:24",1
"17/07/24","02:40",0.0,24.7,88.7,998.6,335.5,1.0,1.8,338.1,0.00,22.7,25.6,"02:31:52",1
"17/07/24","02:50",0.0,24.8,89.1,998.9,290.4,0.5,0.9,305.0,0.00,22.9,25.6,"02:45:12",1
"17/07/24","03:00",0.0,24.7,89.3,998.9,303.5,0.6,1.1,326.7,0.00,22.9,25.6,"02:58:24",1
"17/07/24","03:10",0.0,24.7,89.5,998.6,272.2,0.3,0.8,251.2,0.00,22.9,25.5,"03:04:00",1
"17/07/24","03:20",0.0,24.7,89.6,998.4,317.9,0.8,1.3,346.5,0.00,22.9,25.7,"03:14:40",1
"17/07/24","03:30",0.0,24.7,89.4,998.6,300.1,0.7,1.1,317.1,0.00,22.9,25.7,"03:26:16",1
"17/07/24","03:40",0.0,24.6,89.4,999.1,322.5,0.6,1.1,336.2,0.00,22.8,25.5,"03:39:52",1
"17/07/24","03:50",0.0,24.6,89.8,999.1,334.9,1.0,1.7,355.5,0.00,22.9,25.6,"03:44:24",1
"17/07/24","04:00",0.0,24.4,90.1,998.9,317.0,0.6,1.2,345.0,0.00,22.7,25.5,"03:52:56",1
"17/07/24","04:10",0.0,24.2,90.5,998.6,285.1,1.0,1.4,340.3,0.00,22.6,25.4,"04:07:36",1
"17/07/24","04:20",0.0,24.3,90.7,998.9,299.6,0.8,1.1,319.5,0.00,22.7,25.3,"04:18:16",1
"17/07/24","04:30",0.0,24.4,90.8,999.1,314.3,0.8,1.3,320.7,0.00,22.8,25.4,"04:20:24",1
"17/07/24","04:40",0.0,24.4,91.0,998.9,293.5,0.5,1.2,338.9,0.00,22.9,25.2,"04:39:36",1
"17/07/24","04:50",0.0,24.5,91.1,998.6,336.1,0.8,1.1,341.8,0.00,23.0,25.4,"04:40:48",1
"17/07/24","05:00",0.0,24.6,91.1,998.9,323.4,0.5,1.3,334.0,0.00,23.1,25.3,"04:51:28",1
"17/07/24","05:10",0.0,24.5,91.2,998.4,323.2,1.0,1.4,309.9,0.00,23.0,25.3,"05:06:32",1
"17/07/24","05:20",0.0,24.4,91.4,999.1,301.1,0.7,1.0,317.9,0.00,22.9,25.5,"05:12:48",1
"17/07/24","05:30",0.0,24.4,91.4,999.1,309.2,0.6,1.0,313.1,0.00,22.9,25.4,"05:22:08",1
"17/07/24","05:40",0.0,24.6,91.4,999.1,316.4,0.3,1.2,264.9,0.00,23.1,25.3,"05:32:24",1
"17/07/24","05:50",0.0,24.7,91.4,999.1,256.3,0.3,0.9,276.2,0.00,23.2,25.2,"05:41:20",1
"17/07/24","06:00",0.0,24.8,91.3,998.9,326.8,1.0,1.6,338.8,0.00,23.3,25.5,"05:55:04",1
"17/07/24","06:10",0.0,24.9,91.2,998.9,304.5,0.7,1.0,287.1,0.01,23.4,25.4,"06:01:44",1
"17/07/24","06:20",0.0,25.1,91.0,999.3,311.7,0.6,1.0,321.9,0.01,23.6,25.3,"06:11:36",1
"17/07/24","06:30",0.0,25.4,90.6,999.1,292.3,0.5,0.8,301.5,0.02,23.8,25.5,"06:22:16",1
"17/07/24","06:40",0.0,25.7,90.2,999.3,316.4,0.6,1.2,337.4,0.02,24.0,25.4,"06:36:56",1
"17/07/24","06:50",0.0,26.0,89.5,999.1,327.8,0.8,1.3,325.0,0.03,24.2,25.6,"06:47:52",1
"17/07/24","07:00",0.0,26.2,88.5,999.1,325.6,0.8,1.2,336.0,0.04,24.2,25.5,"06:50:08",1
"17/07/24","07:10",0.0,26.4,87.6,998.9,314.1,0.8,1.3,319.1,0.03,24.2,25.5,"07:09:28",1
"17/07/24","07:20",0.0,26.3,87.8,999.1,325.6,1.0,1.3,337.4,0.01,24.2,25.6,"07:12:56",1
"17/07/24","07:30",0.0,26.3,87.2,998.9,302.7,0.5,0.6,306.3,0.01,24.0,25.6,"07:20:48",1
"17/07/24","07:40",0.0,26.4,87.3,999.1,307.1,0.7,1.2,326.0,0.01,24.2,25.6,"07:39:36",1
"17/07/24","07:50",0.0,26.4,87.5,999.1,330.2,1.0,1.7,338.7,0.00,24.2,25.6,"07:43:20",1
"17/07/24","08:00",0.0,26.2,87.5,998.9,301.4,0.6,1.1,338.3,0.00,24.0,25.8,"07:52:40",1
"17/07/24","08:10",0.0,26.2,87.7,998.9,293.4,0.6,1.0,320.8,0.00,24.0,25.6,"08:08:56",1
"17/07/24","08:20",0.0,26.3,88.0,998.6,321.2,1.0,1.3,336.4,0.01,24.2,25.5,"08:19:44",1
"17/07/24","08:30",0.0,26.4,88.0,999.1,324.3,1.0,1.6,337.4,0.01,24.3,25.6,"08:29:52",1
"17/07/24","08:40",0.0,26.4,88.0,998.9,328.9,1.0,1.8,342.5,0.01,24.3,25.5,"08:32:32",1
"17/07/24","08:50",0.0,26.5,87.3,998.9,291.5,0.5,1.1,337.2,0.02,24.3,25.7,"08:40:48",1
"17/07/24","09:00",0.0,26.7,87.4,998.9,318.8,0.8,1.4,342.6,0.02,24.5,25.5,"08:57:28",1
"17/07/24","09:10",0.0,26.7,86.7,998.4,315.5,0.7,1.1,314.9,0.02,24.3,25.7,"09:04:48",1
"17/07/24","09:20",0.0,26.9,86.1,998.4,294.5,0.2,0.6,336.4,0.04,24.4,25.8,"09:10:08",1
"17/07/24","09:30",0.0,27.2,84.5,998.4,140.0,0.0,0.4,98.0,0.07,24.4,25.8,"09:27:44",1
"17/07/24","09:40",0.0,27.8,81.9,998.2,326.8,0.3,1.1,342.8,0.11,24.5,25.8,"09:38:08",1
"17/07/24","09:50",0.0,28.1,82.2,997.9,324.8,0.3,1.2,310.4,0.12,24.8,25.9,"09:48:08",1
"17/07/24","10:00",0.0,28.3,80.3,997.9,17.6,0.8,1.9,334.4,0.15,24.6,26.1,"09:52:16",1
"17/07/24","10:10",0.0,28.8,79.1,997.7,33.6,0.6,1.3,13.8,0.16,24.9,26.1,"10:03:04",1
"17/07/24","10:20",0.0,28.6,79.6,997.7,4.2,0.5,1.3,345.3,0.12,24.8,26.0,"10:18:48",1
"17/07/24","10:30",0.0,28.8,79.0,998.2,355.5,0.7,1.3,4.2,0.07,24.8,26.2,"10:21:52",1
"17/07/24","10:40",0.0,28.9,78.2,997.9,8.7,0.5,1.2,341.2,0.07,24.8,26.3,"10:32:00",1
"17/07/24","10:50",0.0,28.8,78.3,997.7,21.9,0.6,1.6,359.7,0.05,24.7,26.2,"10:41:04",1
"17/07/24","11:00",0.0,28.8,77.4,997.2,56.3,0.3,1.0,66.1,0.06,24.5,26.3,"10:54:40",1
"17/07/24","11:10",0.0,29.1,77.8,997.4,42.9,0.3,1.1,348.8,0.08,24.9,26.4,"11:08:00",1
"17/07/24","11:20",0.0,29.0,78.2,997.4,2.3,0.3,1.1,344.9,0.08,24.9,26.4,"11:10:48",1
"17/07/24","11:30",0.0,29.3,78.2,997.2,359.9,0.3,1.3,343.8,0.08,25.1,26.4,"11:29:04",1
"17/07/24","11:40",0.0,29.2,78.2,997.2,345.8,0.7,1.3,346.2,0.05,25.0,26.3,"11:35:44",1
"17/07/24","11:50",0.0,29.0,79.5,997.2,1.1,0.6,1.4,347.3,0.06,25.1,26.5,"11:46:00",1
"17/07/24","12:00",0.0,29.2,78.3,997.4,351.4,0.5,1.7,346.0,0.12,25.1,26.6,"11:56:32",1
"17/07/24","12:10",0.0,30.0,76.8,997.4,10.2,0.7,1.6,357.6,0.20,25.5,26.6,"12:06:48",1
"17/07/24","12:20",0.0,30.8,72.8,997.7,144.6,0.5,1.2,124.6,0.25,25.4,26.8,"12:15:36",1
"17/07/24","12:30",0.0,30.7,72.8,998.2,169.2,0.6,1.8,210.0,0.22,25.3,26.8,"12:27:20",1
"17/07/24","12:40",0.0,30.6,74.6,998.6,178.3,1.3,3.7,216.4,0.28,25.6,27.1,"12:35:28",1
"17/07/24","12:50",0.0,32.2,67.5,998.4,150.1,0.7,2.0,188.0,0.53,25.5,27.2,"12:43:12",1
"17/07/24","13:00",0.0,32.6,66.1,999.3,153.5,1.1,2.8,196.8,0.57,25.5,27.6,"12:59:12",1
"17/07/24","13:10",0.0,31.8,67.4,999.3,51.9,0.8,1.8,229.7,0.35,25.1,27.6,"13:04:16",1
"17/07/24","13:20",0.0,31.7,67.1,999.3,316.8,0.5,1.7,206.4,0.25,24.9,27.9,"13:17:52",1
"17/07/24","13:30",0.0,31.4,69.4,999.3,250.4,0.7,1.8,219.2,0.23,25.2,27.8,"13:29:28",1
"17/07/24","13:40",0.0,31.1,72.4,998.9,248.0,0.7,1.7,222.5,0.13,25.6,27.9,"13:31:36",1
"17/07/24","13:50",0.0,32.7,66.7,998.4,347.2,0.7,2.1,1.6,0.37,25.7,28.0,"13:44:00",1
"17/07/24","14:00",0.0,32.6,67.0,998.4,333.3,1.0,2.6,226.5,0.33,25.7,28.2,"13:56:16",1
"17/07/24","14:10",0.0,32.7,65.4,998.6,344.1,0.5,1.9,349.7,0.27,25.4,28.3,"14:09:04",1
"17/07/24","14:20",0.0,32.1,66.5,997.9,210.6,1.1,3.1,227.8,0.19,25.1,28.3,"14:15:44",1
"17/07/24","14:30",0.0,32.1,67.6,998.4,232.2,1.1,3.2,223.5,0.22,25.4,28.3,"14:21:12",1
"17/07/24","14:40",0.0,31.8,68.7,998.4,227.6,1.1,3.7,215.0,0.18,25.4,28.4,"14:31:36",1
"17/07/24","14:50",0.0,31.7,68.7,997.7,238.7,1.6,4.0,205.5,0.19,25.3,28.3,"14:48:56",1
"17/07/24","15:00",0.0,31.2,70.1,997.7,259.8,1.1,2.8,238.2,0.11,25.1,28.3,"14:54:08",1
"17/07/24","15:10",0.0,31.2,69.6,997.0,248.6,0.7,2.1,216.8,0.13,25.0,28.3,"15:01:28",1
"17/07/24","15:20",0.0,31.4,67.4,997.2,293.7,0.5,1.6,211.1,0.13,24.7,28.2,"15:10:24",1
"17/07/24","15:30",0.0,31.2,69.9,997.2,349.4,0.6,2.2,358.3,0.10,25.1,28.2,"15:26:48",1
"17/07/24","15:40",0.0,31.2,69.8,996.7,245.4,0.6,1.6,218.3,0.09,25.1,28.3,"15:39:20",1
"17/07/24","15:50",0.0,31.3,70.2,996.5,270.1,0.6,1.8,223.3,0.11,25.3,28.4,"15:45:36",1
"17/07/24","16:00",0.0,31.4,70.0,996.5,298.4,0.5,1.9,338.6,0.13,25.3,28.5,"15:59:12",1
"17/07/24","16:10",0.0,31.8,69.6,996.3,328.8,0.7,1.8,5.4,0.16,25.6,28.3,"16:00:08",1
"17/07/24","16:20",0.0,31.8,68.9,996.5,332.2,0.7,2.1,340.1,0.17,25.4,28.4,"16:16:00",1
"17/07/24","16:30",0.0,31.4,69.0,996.3,308.1,0.7,2.5,355.7,0.10,25.1,28.5,"16:29:12",1
"17/07/24","16:40",0.0,31.3,69.3,996.0,344.8,1.1,2.8,354.9,0.06,25.0,28.1,"16:30:16",1
"17/07/24","16:50",0.0,31.0,70.0,995.8,349.1,1.0,2.9,343.9,0.05,24.9,28.3,"16:42:48",1
"17/07/24","17:00",0.0,31.0,70.1,995.8,300.3,0.8,2.1,228.8,0.06,24.9,28.2,"16:54:40",1
"17/07/24","17:10",0.0,31.4,71.5,995.6,276.4,0.5,1.6,328.1,0.10,25.7,27.9,"17:07:44",1
"17/07/24","17:20",0.0,32.2,67.6,996.0,4.2,0.2,0.9,200.4,0.13,25.5,28.2,"17:12:32",1
"17/07/24","17:30",0.0,32.2,68.3,996.3,353.8,0.3,1.0,353.1,0.08,25.7,28.2,"17:21:28",1
"17/07/24","17:40",0.0,31.7,68.1,996.3,162.4,0.7,1.7,222.3,0.06,25.1,28.2,"17:32:24",1
"17/07/24","17:50",0.0,31.1,69.6,996.0,261.4,1.5,3.4,189.1,0.03,24.9,28.1,"17:43:44",1
"17/07/24","18:00",0.0,30.8,70.4,996.0,229.5,0.6,2.5,226.5,0.01,24.8,28.3,"17:56:24",1
"17/07/24","18:10",0.0,30.7,70.7,995.6,248.2,0.5,1.2,204.4,0.02,24.8,27.9,"18:02:16",1
"17/07/24","18:20",0.0,30.6,71.5,995.8,254.8,0.3,1.8,217.1,0.01,24.9,28.2,"18:19:44",1
"17/07/24","18:30",0.0,30.4,71.5,995.3,229.6,0.6,1.8,207.8,0.00,24.7,28.0,"18:25:12",1
"17/07/24","18:40",0.0,30.2,73.0,994.8,241.8,0.3,1.2,324.9,0.00,24.9,28.0,"18:33:28",1
"17/07/24","18:50",0.0,30.1,73.9,995.3,215.5,0.8,1.9,227.5,0.00,25.0,28.0,"18:41:04",1
"17/07/24","19:00",0.0,29.9,74.5,994.8,208.7,1.0,3.1,215.5,0.00,24.9,27.9,"18:58:48",1
"17/07/24","19:10",0.0,29.8,74.7,994.8,229.6,0.8,2.4,207.9,0.00,24.9,27.8,"19:03:52",1
"17/07/24","19:20",0.0,29.7,74.4,994.8,224.1,1.2,2.5,229.6,0.00,24.7,27.5,"19:14:16",1
"17/07/24","19:30",0.0,29.5,75.4,995.1,227.8,0.3,1.3,229.7,0.00,24.7,27.5,"19:28:00",1
"17/07/24","19:40",0.0,29.3,75.1,995.3,220.3,0.8,2.0,221.0,0.00,24.5,27.6,"19:38:24",1
"17/07/24","19:50",0.0,29.2,74.8,995.6,248.5,0.6,1.6,252.8,0.00,24.3,27.5,"19:41:52",1
"17/07/24","20:00",0.0,29.0,77.5,996.0,348.5,0.7,1.1,353.1,0.00,24.7,27.4,"19:53:20",1
"17/07/24","20:10",0.0,28.6,78.3,996.3,313.7,0.5,1.1,344.5,0.00,24.5,27.4,"20:01:12",1
"17/07/24","20:20",0.0,28.5,79.6,995.8,278.3,0.2,0.5,326.0,0.00,24.7,27.2,"20:16:40",1
"17/07/24","20:30",0.0,28.3,80.8,996.3,286.9,0.1,0.6,342.4,0.00,24.7,27.4,"20:20:02",1
"17/07/24","20:40",0.0,28.0,82.4,996.7,343.1,1.0,1.8,327.3,0.00,24.8,27.3,"20:31:52",1
"17/07/24","20:50",0.0,28.0,83.0,996.7,346.6,0.8,1.3,358.4,0.00,24.9,27.0,"20:42:24",1
"17/07/24","21:00",0.0,27.8,82.6,997.0,289.8,0.6,1.2,266.8,0.00,24.6,27.0,"20:57:52",1
"17/07/24","21:10",0.0,27.8,81.9,996.7,250.9,0.5,1.6,232.3,0.00,24.5,26.9,"21:01:28",1
"17/07/24","21:20",0.0,27.8,82.7,996.7,348.1,0.6,1.4,330.1,0.00,24.6,27.1,"21:15:04",1
"17/07/24","21:30",0.0,27.6,83.5,996.7,323.7,1.0,1.4,331.6,0.00,24.6,27.2,"21:24:32",1
"17/07/24","21:40",0.0,27.4,84.0,997.2,307.0,0.6,0.9,301.9,0.00,24.5,27.0,"21:30:56",1
"17/07/24","21:50",0.0,27.2,84.7,997.0,278.1,0.3,1.1,287.8,0.00,24.4,26.9,"21:40:02",1
"17/07/24","22:00",0.0,27.2,84.8,997.2,299.0,0.8,1.4,310.7,0.00,24.5,26.8,"21:54:24",1
"17/07/24","22:10",0.0,27.2,84.5,997.4,312.0,0.8,1.7,342.9,0.00,24.4,26.9,"22:05:04",1
"17/07/24","22:20",0.0,27.1,84.4,997.7,324.7,0.8,1.8,326.5,0.00,24.3,27.0,"22:10:32",1
"17/07/24","22:30",0.0,27.1,83.9,997.2,352.5,0.6,1.0,348.5,0.00,24.2,27.0,"22:20:32",1
"17/07/24","22:40",0.0,27.1,84.2,997.4,310.0,0.5,1.0,318.4,0.00,24.2,26.8,"22:32:40",1
"17/07/24","22:50",0.0,27.1,84.5,997.4,338.8,1.0,1.8,341.2,0.00,24.3,26.6,"22:48:48",1
"17/07/24","23:00",0.0,27.0,84.0,997.4,332.8,1.0,1.8,342.4,0.00,24.1,26.6,"22:54:16",1
"17/07/24","23:10",0.0,27.1,84.4,997.4,323.7,1.1,1.6,329.3,0.00,24.3,26.7,"23:07:52",1
"17/07/24","23:20",0.0,27.0,83.9,997.4,311.5,1.1,1.7,339.2,0.00,24.1,26.5,"23:10:32",1
"17/07/24","23:30",0.0,27.0,83.4,997.2,291.8,0.7,1.1,310.7,0.00,24.0,26.5,"23:21:12",1
"17/07/24","23:40",0.0,27.0,83.2,997.2,309.9,0.8,1.2,332.6,0.00,23.9,26.6,"23:37:20",1
"17/07/24","23:50",0.0,27.0,83.6,997.2,346.8,1.0,1.4,354.1,0.00,24.0,26.6,"23:43:36",1
"17/07/24","24:00",0.0,26.9,83.9,997.0,340.6,0.8,1.3,339.9,0.00,24.0,26.5,"23:55:52",1
